Simultaneous Nadir Overpasses (SNOs) Predictions

Prediction of SNOs between AQUA and METOP-C Satellite Orbit:

Table of predicted SNOs for the next 14.0 days since TLE Epoch: 1/9/2021
Index Date (AQUA) Time (AQUA) Lat,Lon (AQUA) SZA (AQUA ) Date (METOP-C) Time (METOP-C) Lat,Lon (METOP-C) SZA (METOP-C ) Distance(km) Time Diff (sec)
1 01/09/2021 08:24:16 73.69, 48.40 95.77 01/09/2021 08:23:39 73.68, 48.43 95.77 1.18 37
2 01/09/2021 09:13:43 -73.77,-144.11 84.16 01/09/2021 09:14:19 -73.76,-144.06 84.17 1.67 36
3 01/12/2021 03:58:31 73.71, 114.81 95.36 01/12/2021 03:58:02 73.69, 114.84 95.35 2.68 29
4 01/12/2021 04:47:58 -73.77, -77.69 84.58 01/12/2021 04:48:42 -73.77, -77.63 84.58 1.99 44
5 01/14/2021 22:43:06 -73.06, 14.96 85.81 01/14/2021 22:41:59 -73.00, 12.38 85.75 83.87 67
6 01/14/2021 23:32:45 73.68,-178.68 94.85 01/14/2021 23:32:25 73.69,-178.75 94.87 2.32 20
7 01/15/2021 00:22:12 -73.79, -11.28 85.04 01/15/2021 00:23:04 -73.78, -11.20 85.06 2.73 52
8 01/17/2021 18:17:26 -73.40, 80.72 85.98 01/17/2021 18:16:15 -73.31, 79.47 86.01 40.96 71
9 01/17/2021 19:06:59 73.71,-112.30 94.35 01/17/2021 19:06:47 73.68,-112.35 94.33 2.90 12
10 01/17/2021 19:56:26 -73.76, 55.22 85.61 01/17/2021 19:57:27 -73.79, 55.23 85.59 3.55 61
11 01/20/2021 13:51:45 -73.63, 146.66 86.32 01/20/2021 13:50:32 -73.62, 146.57 86.32 3.40 73
12 01/20/2021 14:41:14 73.74, -45.94 93.80 01/20/2021 14:41:09 73.73, -45.83 93.78 3.42 5



Historial Predications of SNOs between AQUA and METOP-C
